Location: Alto Pass Reservoir
(37.5801°N, 89.3084°W)
Time: 12:46:30
(UTC+00:00)

NEOSSAT - Pass Details

Date: 01 October 2022
Orbit: 767 x 784 km, 98.4° (Epoch: 26 November)

Event Time Altitude Azimuth Distance (km) Brightness Sun altitude
Rises 00:02:03 0° 24° (NNE) 3,280 ? -4.9°
Reaches altitude 10° 00:04:37 10° 34° (NE) 2,348 ? -5.4°
Maximum altitude 00:09:14 32° 97° (E) 1,327 ? -6.3°
Drops below altitude 10° 00:13:48 10° 159° (SSE) 2,333 ? -7.2°
Sets 00:16:20 0° 170° (S) 3,255 ? -7.7°
